Time,TemperatureF,DewpointF,PressureIn,WindDirection,WindDirectionDegrees,WindSpeedMPH,WindSpeedGustMPH,Humidity,HourlyPrecipIn,Conditions,Clouds,dailyrainin,SolarRadiationWatts/m^2,SoftwareType,DateUTC
2013-01-23 00:00:00,41.9,39.7,29.95,North,-999,0.0,0.0,92,0.00,,,-99.99,0,WeatherLink 5.7,2013-01-23 08:00:00,
2013-01-23 00:02:00,41.9,39.7,29.96,North,355,0.0,0.0,92,0.00,,,0.00,,Wunderground v.1.13,2013-01-23 08:02:00,
2013-01-23 00:12:00,42.1,39.9,29.96,North,355,0.0,0.0,92,0.00,,,0.00,,Wunderground v.1.13,2013-01-23 08:12:00,
2013-01-23 00:15:00,41.9,39.7,29.95,North,-999,0.0,0.0,92,0.00,,,-99.99,0,WeatherLink 5.7,2013-01-23 08:15:00,
2013-01-23 00:17:00,41.9,39.7,29.96,North,355,0.0,0.0,92,0.00,,,0.00,,Wunderground v.1.13,2013-01-23 08:17:00,
2013-01-23 00:22:00,41.9,39.7,29.96,North,355,0.0,0.0,92,0.00,,,0.00,,Wunderground v.1.13,2013-01-23 08:22:00,
2013-01-23 00:27:00,41.9,39.7,29.96,North,355,0.0,0.0,92,0.00,,,0.00,,Wunderground v.1.13,2013-01-23 08:27:00,
2013-01-23 00:30:00,42.1,39.9,29.95,North,-999,0.0,0.0,92,0.00,,,-99.99,0,WeatherLink 5.7,2013-01-23 08:30:00,
2013-01-23 00:37:00,41.9,39.7,29.96,North,355,0.0,0.0,92,0.00,,,0.00,,Wunderground v.1.13,2013-01-23 08:37:00,
2013-01-23 00:42:00,41.9,39.7,29.96,North,355,0.0,0.0,92,0.00,,,0.00,,Wunderground v.1.13,2013-01-23 08:42:00,
2013-01-23 00:45:00,42.1,39.9,29.95,North,-999,0.0,0.0,92,0.00,,,-99.99,0,WeatherLink 5.7,2013-01-23 08:45:00,
2013-01-23 00:47:00,41.9,39.7,29.95,North,355,0.0,0.0,92,0.00,,,0.00,,Wunderground v.1.13,2013-01-23 08:47:00,
2013-01-23 00:57:00,41.9,39.7,29.95,North,355,0.0,0.0,92,0.00,,,0.00,,Wunderground v.1.13,2013-01-23 08:57:00,
2013-01-23 01:00:00,42.2,40.0,29.94,North,-999,0.0,0.0,92,0.00,,,-99.99,0,WeatherLink 5.7,2013-01-23 09:00:00,
2013-01-23 01:07:00,41.9,39.7,29.95,North,355,0.0,0.0,92,0.00,,,0.00,,Wunderground v.1.13,2013-01-23 09:07:00,
2013-01-23 01:15:00,42.5,40.6,29.93,North,-999,0.0,0.0,93,0.00,,,-99.99,0,WeatherLink 5.7,2013-01-23 09:15:00,
2013-01-23 01:17:00,41.9,39.7,29.95,North,355,0.0,0.0,92,0.00,,,0.00,,Wunderground v.1.13,2013-01-23 09:17:00,
2013-01-23 01:22:00,41.9,39.7,29.95,North,355,0.0,0.0,92,0.00,,,0.00,,Wunderground v.1.13,2013-01-23 09:22:00,
2013-01-23 01:30:00,42.5,40.6,29.93,North,-999,0.0,0.0,93,0.00,,,-99.99,0,WeatherLink 5.7,2013-01-23 09:30:00,
2013-01-23 01:32:00,42.1,39.9,29.95,North,355,0.0,0.0,92,0.00,,,0.00,,Wunderground v.1.13,2013-01-23 09:32:00,
2013-01-23 01:42:00,42.1,39.9,29.95,North,355,0.0,0.0,92,0.00,,,0.00,,Wunderground v.1.13,2013-01-23 09:42:00,
2013-01-23 01:45:00,42.6,40.7,29.94,North,-999,0.0,0.0,93,0.00,,,-99.99,0,WeatherLink 5.7,2013-01-23 09:45:00,
2013-01-23 01:47:00,42.1,39.9,29.95,North,355,0.0,0.0,92,0.00,,,0.00,,Wunderground v.1.13,2013-01-23 09:47:00,
2013-01-23 01:52:00,42.2,40.0,29.95,North,355,0.0,0.0,92,0.00,,,0.00,,Wunderground v.1.13,2013-01-23 09:52:00,
2013-01-23 01:57:00,42.2,40.3,29.95,North,355,0.0,0.0,93,0.00,,,0.00,,Wunderground v.1.13,2013-01-23 09:57:00,
2013-01-23 02:00:00,42.9,41.0,29.93,North,-999,0.0,0.0,93,0.00,,,-99.99,0,WeatherLink 5.7,2013-01-23 10:00:00,
2013-01-23 02:07:00,42.3,40.4,29.94,North,355,0.0,0.0,93,0.00,,,0.00,,Wunderground v.1.13,2013-01-23 10:07:00,
2013-01-23 02:12:00,42.3,40.4,29.94,North,355,0.0,0.0,93,0.00,,,0.00,,Wunderground v.1.13,2013-01-23 10:12:00,
2013-01-23 02:15:00,42.8,40.9,29.92,North,-999,0.0,0.0,93,0.00,,,-99.99,0,WeatherLink 5.7,2013-01-23 10:15:00,
2013-01-23 02:22:00,42.5,40.6,29.93,North,355,0.0,0.0,93,0.00,,,0.00,,Wunderground v.1.13,2013-01-23 10:22:00,
2013-01-23 02:30:00,42.8,40.6,29.92,North,-999,0.0,0.0,92,0.00,,,-99.99,0,WeatherLink 5.7,2013-01-23 10:30:00,
2013-01-23 02:32:00,42.6,40.7,29.93,North,355,0.0,0.0,93,0.00,,,0.00,,Wunderground v.1.13,2013-01-23 10:32:00,
2013-01-23 02:42:00,42.5,40.6,29.93,North,355,0.0,0.0,93,0.00,,,0.00,,Wunderground v.1.13,2013-01-23 10:42:00,
2013-01-23 02:45:00,42.6,40.4,29.92,North,-999,0.0,0.0,92,0.00,,,-99.99,0,WeatherLink 5.7,2013-01-23 10:45:00,
2013-01-23 02:47:00,42.6,40.7,29.94,North,355,0.0,0.0,93,0.00,,,0.00,,Wunderground v.1.13,2013-01-23 10:47:00,
2013-01-23 02:52:00,42.6,40.7,29.94,North,355,0.0,0.0,93,0.00,,,0.00,,Wunderground v.1.13,2013-01-23 10:52:00,
2013-01-23 03:00:00,42.6,40.4,29.92,North,-999,0.0,0.0,92,0.00,,,-99.99,0,WeatherLink 5.7,2013-01-23 11:00:00,
2013-01-23 03:02:00,42.9,41.0,29.93,North,355,0.0,0.0,93,0.00,,,0.00,,Wunderground v.1.13,2013-01-23 11:02:00,
2013-01-23 03:12:00,42.8,40.9,29.93,North,355,0.0,0.0,93,0.00,,,0.00,,Wunderground v.1.13,2013-01-23 11:12:00,
2013-01-23 03:15:00,42.5,40.3,29.90,North,-999,0.0,0.0,92,0.00,,,-99.99,0,WeatherLink 5.7,2013-01-23 11:15:00,
2013-01-23 03:17:00,42.8,40.6,29.92,North,355,0.0,0.0,92,0.00,,,0.00,,Wunderground v.1.13,2013-01-23 11:17:00,
2013-01-23 03:27:00,42.8,40.6,29.92,North,355,0.0,0.0,92,0.00,,,0.00,,Wunderground v.1.13,2013-01-23 11:27:00,
2013-01-23 03:30:00,42.2,40.0,29.91,North,-999,0.0,0.0,92,0.00,,,-99.99,0,WeatherLink 5.7,2013-01-23 11:30:00,
2013-01-23 03:37:00,42.6,40.4,29.92,North,355,0.0,0.0,92,0.00,,,0.00,,Wunderground v.1.13,2013-01-23 11:37:00,
2013-01-23 03:42:00,42.6,40.4,29.92,North,355,0.0,0.0,92,0.00,,,0.00,,Wunderground v.1.13,2013-01-23 11:42:00,
2013-01-23 03:45:00,41.9,39.7,29.91,North,-999,0.0,0.0,92,0.00,,,-99.99,0,WeatherLink 5.7,2013-01-23 11:45:00,
2013-01-23 03:52:00,42.6,40.4,29.92,North,355,0.0,0.0,92,0.00,,,0.00,,Wunderground v.1.13,2013-01-23 11:52:00,
2013-01-23 03:57:00,42.6,40.4,29.92,North,355,0.0,0.0,92,0.00,,,0.00,,Wunderground v.1.13,2013-01-23 11:57:00,
2013-01-23 04:00:00,41.9,40.0,29.91,North,-999,0.0,0.0,93,0.00,,,-99.99,0,WeatherLink 5.7,2013-01-23 12:00:00,
2013-01-23 04:02:00,42.5,40.3,29.92,North,355,0.0,0.0,92,0.00,,,0.00,,Wunderground v.1.13,2013-01-23 12:02:00,
2013-01-23 04:12:00,42.5,40.3,29.92,North,355,0.0,0.0,92,0.00,,,0.00,,Wunderground v.1.13,2013-01-23 12:12:00,
2013-01-23 04:15:00,41.8,39.9,29.89,North,-999,0.0,0.0,93,0.00,,,-99.99,0,WeatherLink 5.7,2013-01-23 12:15:00,
2013-01-23 04:17:00,42.3,40.1,29.90,North,355,0.0,0.0,92,0.00,,,0.00,,Wunderground v.1.13,2013-01-23 12:17:00,
2013-01-23 04:22:00,42.3,40.1,29.90,North,355,0.0,0.0,92,0.00,,,0.00,,Wunderground v.1.13,2013-01-23 12:22:00,
2013-01-23 04:30:00,41.8,39.9,29.89,North,-999,0.0,0.0,93,0.00,,,-99.99,0,WeatherLink 5.7,2013-01-23 12:30:00,
2013-01-23 04:32:00,42.2,40.0,29.91,North,355,0.0,0.0,92,0.00,,,0.00,,Wunderground v.1.13,2013-01-23 12:32:00,
2013-01-23 04:37:00,42.1,39.9,29.91,North,355,0.0,0.0,92,0.00,,,0.00,,Wunderground v.1.13,2013-01-23 12:37:00,
2013-01-23 04:42:00,41.9,39.7,29.91,North,355,0.0,0.0,92,0.00,,,0.00,,Wunderground v.1.13,2013-01-23 12:42:00,
2013-01-23 04:45:00,41.8,39.9,29.90,North,-999,0.0,0.0,93,0.00,,,-99.99,0,WeatherLink 5.7,2013-01-23 12:45:00,
2013-01-23 04:47:00,41.9,39.7,29.91,North,355,0.0,0.0,92,0.00,,,0.00,,Wunderground v.1.13,2013-01-23 12:47:00,
2013-01-23 04:52:00,41.9,40.0,29.91,North,355,0.0,0.0,93,0.00,,,0.00,,Wunderground v.1.13,2013-01-23 12:52:00,
2013-01-23 05:00:00,41.8,39.9,29.90,North,-999,0.0,0.0,93,0.00,,,-99.99,0,WeatherLink 5.7,2013-01-23 13:00:00,
2013-01-23 05:07:00,41.9,40.0,29.91,N/A,-737280,0.0,0.0,93,0.00,,,0.00,,Wunderground v.1.13,2013-01-23 13:07:00,
2013-01-23 05:12:00,41.8,39.9,29.91,North,355,0.0,0.0,93,0.00,,,0.00,,Wunderground v.1.13,2013-01-23 13:12:00,
2013-01-23 05:15:00,41.9,40.3,29.92,North,-999,0.0,0.0,94,0.00,,,-99.99,0,WeatherLink 5.7,2013-01-23 13:15:00,
2013-01-23 05:22:00,41.8,39.9,29.89,North,355,0.0,0.0,93,0.00,,,0.00,,Wunderground v.1.13,2013-01-23 13:22:00,
2013-01-23 05:30:00,42.2,40.6,29.92,North,-999,0.0,0.0,94,0.00,,,-99.99,0,WeatherLink 5.7,2013-01-23 13:30:00,
2013-01-23 05:32:00,41.8,39.9,29.89,North,355,0.0,0.0,93,0.00,,,0.00,,Wunderground v.1.13,2013-01-23 13:32:00,
2013-01-23 05:37:00,41.8,39.9,29.89,North,355,0.0,0.0,93,0.00,,,0.00,,Wunderground v.1.13,2013-01-23 13:37:00,
2013-01-23 05:42:00,41.8,39.9,29.89,North,355,0.0,0.0,93,0.00,,,0.00,,Wunderground v.1.13,2013-01-23 13:42:00,
2013-01-23 05:45:00,42.2,40.6,29.92,North,-999,0.0,0.0,94,0.00,,,-99.99,0,WeatherLink 5.7,2013-01-23 13:45:00,
2013-01-23 05:52:00,41.8,39.9,29.90,North,355,0.0,0.0,93,0.00,,,0.00,,Wunderground v.1.13,2013-01-23 13:52:00,
2013-01-23 05:57:00,41.8,39.9,29.90,North,355,0.0,0.0,93,0.00,,,0.00,,Wunderground v.1.13,2013-01-23 13:57:00,
2013-01-23 06:00:00,42.2,40.6,29.92,North,-999,0.0,0.0,94,0.00,,,-99.99,0,WeatherLink 5.7,2013-01-23 14:00:00,
2013-01-23 06:07:00,41.8,39.9,29.90,North,355,0.0,0.0,93,0.00,,,0.00,,Wunderground v.1.13,2013-01-23 14:07:00,
2013-01-23 06:12:00,41.8,39.9,29.90,North,355,0.0,0.0,93,0.00,,,0.00,,Wunderground v.1.13,2013-01-23 14:12:00,
2013-01-23 06:15:00,42.2,40.6,29.92,North,-999,0.0,0.0,94,0.00,,,-99.99,0,WeatherLink 5.7,2013-01-23 14:15:00,
2013-01-23 06:22:00,42.1,40.5,29.92,North,355,0.0,0.0,94,0.00,,,0.00,,Wunderground v.1.13,2013-01-23 14:22:00,
2013-01-23 06:27:00,42.2,40.6,29.92,North,355,0.0,0.0,94,0.00,,,0.00,,Wunderground v.1.13,2013-01-23 14:27:00,
2013-01-23 06:30:00,42.2,40.6,29.92,North,-999,0.0,0.0,94,0.00,,,-99.99,0,WeatherLink 5.7,2013-01-23 14:30:00,
2013-01-23 06:32:00,42.2,40.6,29.91,North,355,0.0,0.0,94,0.00,,,0.00,,Wunderground v.1.13,2013-01-23 14:32:00,
2013-01-23 06:42:00,42.2,40.6,29.91,North,355,0.0,0.0,94,0.00,,,0.00,,Wunderground v.1.13,2013-01-23 14:42:00,
2013-01-23 06:45:00,42.2,40.6,29.92,North,-999,0.0,0.0,94,0.00,,,-99.99,3,WeatherLink 5.7,2013-01-23 14:45:00,
2013-01-23 06:52:00,42.2,40.6,29.92,North,355,0.0,0.0,94,0.00,,,0.00,,Wunderground v.1.13,2013-01-23 14:52:00,
2013-01-23 07:00:00,42.5,40.9,29.92,North,-999,0.0,0.0,94,0.00,,,-99.99,9,WeatherLink 5.7,2013-01-23 15:00:00,
2013-01-23 07:02:00,42.2,40.6,29.92,North,355,0.0,0.0,94,0.00,,,0.00,,Wunderground v.1.13,2013-01-23 15:02:00,
2013-01-23 07:07:00,42.2,40.6,29.92,North,355,0.0,0.0,94,0.00,,,0.00,,Wunderground v.1.13,2013-01-23 15:07:00,
2013-01-23 07:15:00,42.6,41.0,29.92,North,-999,0.0,0.0,94,0.00,,,-99.99,16,WeatherLink 5.7,2013-01-23 15:15:00,
2013-01-23 07:17:00,42.2,40.6,29.92,North,355,0.0,0.0,94,0.00,,,0.00,,Wunderground v.1.13,2013-01-23 15:17:00,
2013-01-23 07:22:00,42.2,40.6,29.92,North,355,0.0,0.0,94,0.00,,,0.00,,Wunderground v.1.13,2013-01-23 15:22:00,
2013-01-23 07:30:00,43.2,41.9,29.93,North,0,0.0,1.0,95,0.00,,,-99.99,20,WeatherLink 5.7,2013-01-23 15:30:00,
2013-01-23 07:32:00,42.2,40.6,29.92,North,355,0.0,0.0,94,0.00,,,0.00,,Wunderground v.1.13,2013-01-23 15:32:00,
2013-01-23 07:37:00,42.2,40.6,29.92,North,355,0.0,0.0,94,0.00,,,0.00,,Wunderground v.1.13,2013-01-23 15:37:00,
2013-01-23 07:45:00,43.6,42.3,29.93,North,-999,0.0,1.0,95,0.00,,,-99.99,40,WeatherLink 5.7,2013-01-23 15:45:00,
2013-01-23 07:47:00,42.3,40.7,29.92,North,355,0.0,0.0,94,0.00,,,0.00,,Wunderground v.1.13,2013-01-23 15:47:00,
2013-01-23 07:57:00,42.5,40.9,29.92,North,355,0.0,0.0,94,0.00,,,0.00,,Wunderground v.1.13,2013-01-23 15:57:00,
2013-01-23 08:00:00,44.1,42.8,29.93,North,-999,0.0,0.0,95,0.00,,,-99.99,52,WeatherLink 5.7,2013-01-23 16:00:00,
2013-01-23 08:07:00,42.5,40.9,29.92,North,355,0.0,0.0,94,0.00,,,0.00,,Wunderground v.1.13,2013-01-23 16:07:00,
2013-01-23 08:12:00,42.5,40.9,29.92,North,355,0.0,0.0,94,0.00,,,0.00,,Wunderground v.1.13,2013-01-23 16:12:00,
2013-01-23 08:15:00,44.6,43.3,29.95,North,-999,0.0,0.0,95,0.00,,,-99.99,33,WeatherLink 5.7,2013-01-23 16:15:00,
2013-01-23 08:22:00,42.8,41.5,29.92,North,355,0.0,0.0,95,0.00,,,0.00,,Wunderground v.1.13,2013-01-23 16:22:00,
2013-01-23 08:27:00,43.1,41.8,29.92,North,355,0.0,0.0,95,0.00,,,0.00,,Wunderground v.1.13,2013-01-23 16:27:00,
2013-01-23 08:30:00,44.9,43.3,29.94,North,-999,0.0,0.0,94,0.00,,,-99.99,56,WeatherLink 5.7,2013-01-23 16:30:00,
2013-01-23 08:37:00,43.5,42.2,29.93,North,355,0.0,0.0,95,0.00,,,0.00,,Wunderground v.1.13,2013-01-23 16:37:00,
2013-01-23 08:42:00,43.5,42.2,29.93,North,355,0.0,0.0,95,0.00,,,0.00,,Wunderground v.1.13,2013-01-23 16:42:00,
2013-01-23 08:45:00,45.7,44.1,29.95,North,-999,0.0,0.0,94,0.00,,,-99.99,77,WeatherLink 5.7,2013-01-23 16:45:00,
2013-01-23 08:52:00,43.8,42.5,29.93,North,355,0.0,0.0,95,0.00,,,0.00,,Wunderground v.1.13,2013-01-23 16:52:00,
2013-01-23 09:00:00,46.4,44.5,29.95,North,-999,0.0,0.0,93,0.00,,,-99.99,75,WeatherLink 5.7,2013-01-23 17:00:00,
2013-01-23 09:02:00,44.1,42.8,29.93,North,355,0.0,0.0,95,0.00,,,0.00,,Wunderground v.1.13,2013-01-23 17:02:00,
2013-01-23 09:07:00,44.3,43.0,29.93,North,355,0.0,0.0,95,0.00,,,0.00,,Wunderground v.1.13,2013-01-23 17:07:00,
2013-01-23 09:15:00,47.1,44.9,29.95,North,-999,0.0,0.0,92,0.00,,,-99.99,89,WeatherLink 5.7,2013-01-23 17:15:00,
2013-01-23 09:17:00,44.6,43.3,29.95,North,355,0.0,0.0,95,0.00,,,0.00,,Wunderground v.1.13,2013-01-23 17:17:00,
2013-01-23 09:27:00,44.9,43.3,29.95,North,355,0.0,0.0,94,0.00,,,0.00,,Wunderground v.1.13,2013-01-23 17:27:00,
2013-01-23 09:30:00,47.9,45.1,29.96,North,-999,0.0,0.0,90,0.00,,,-99.99,83,WeatherLink 5.7,2013-01-23 17:30:00,
2013-01-23 09:37:00,45.2,43.6,29.95,North,355,0.0,0.0,94,0.00,,,0.00,,Wunderground v.1.13,2013-01-23 17:37:00,
2013-01-23 09:42:00,45.5,43.9,29.95,North,355,0.0,0.0,94,0.00,,,0.00,,Wunderground v.1.13,2013-01-23 17:42:00,
2013-01-23 09:45:00,48.5,44.2,29.95,North,-999,0.0,0.0,85,0.00,,,-99.99,77,WeatherLink 5.7,2013-01-23 17:45:00,
2013-01-23 09:47:00,45.8,44.2,29.95,North,355,0.0,0.0,94,0.00,,,0.00,,Wunderground v.1.13,2013-01-23 17:47:00,
2013-01-23 09:52:00,46.0,44.4,29.95,North,355,0.0,0.0,94,0.00,,,0.00,,Wunderground v.1.13,2013-01-23 17:52:00,
2013-01-23 10:00:00,49.2,44.3,29.97,North,0,0.0,1.0,83,0.00,,,-99.99,87,WeatherLink 5.7,2013-01-23 18:00:00,
2013-01-23 10:02:00,46.4,44.5,29.95,North,355,0.0,0.0,93,0.00,,,0.00,,Wunderground v.1.13,2013-01-23 18:02:00,
2013-01-23 10:12:00,47.0,44.8,29.95,North,355,0.0,0.0,92,0.00,,,0.00,,Wunderground v.1.13,2013-01-23 18:12:00,
2013-01-23 10:15:00,49.8,43.9,29.97,North,0,0.0,1.0,80,0.00,,,-99.99,76,WeatherLink 5.7,2013-01-23 18:15:00,
2013-01-23 10:22:00,47.4,44.9,29.95,North,355,0.0,0.0,91,0.00,,,0.00,,Wunderground v.1.13,2013-01-23 18:22:00,
2013-01-23 10:27:00,47.7,44.9,29.95,North,355,0.0,0.0,90,0.00,,,0.00,,Wunderground v.1.13,2013-01-23 18:27:00,
2013-01-23 10:30:00,50.2,44.6,29.96,North,-999,0.0,0.0,81,0.00,,,-99.99,81,WeatherLink 5.7,2013-01-23 18:30:00,
2013-01-23 10:37:00,48.2,44.8,29.96,North,355,0.0,0.0,88,0.00,,,0.00,,Wunderground v.1.13,2013-01-23 18:37:00,
2013-01-23 10:42:00,48.3,44.6,29.96,North,355,0.0,0.0,87,0.00,,,0.00,,Wunderground v.1.13,2013-01-23 18:42:00,
2013-01-23 10:45:00,50.4,44.5,29.96,North,-999,0.0,0.0,80,0.00,,,-99.99,76,WeatherLink 5.7,2013-01-23 18:45:00,
2013-01-23 10:47:00,48.6,44.3,29.95,North,355,0.0,0.0,85,0.00,,,0.00,,Wunderground v.1.13,2013-01-23 18:47:00,
2013-01-23 10:57:00,49.1,44.2,29.95,North,355,0.0,0.0,83,0.00,,,0.00,,Wunderground v.1.13,2013-01-23 18:57:00,
2013-01-23 11:00:00,50.7,45.4,29.96,North,-999,0.0,0.0,82,0.00,,,-99.99,62,WeatherLink 5.7,2013-01-23 19:00:00,
2013-01-23 11:02:00,49.4,44.5,29.97,North,355,0.0,0.0,83,0.00,,,0.00,,Wunderground v.1.13,2013-01-23 19:02:00,
2013-01-23 11:07:00,49.5,43.9,29.97,North,355,0.0,0.0,81,0.00,,,0.00,,Wunderground v.1.13,2013-01-23 19:07:00,
2013-01-23 11:12:00,49.6,44.0,29.97,North,355,0.0,0.0,81,0.00,,,0.00,,Wunderground v.1.13,2013-01-23 19:12:00,
2013-01-23 11:15:00,50.7,45.7,29.95,North,0,0.0,1.0,83,0.00,,,-99.99,55,WeatherLink 5.7,2013-01-23 19:15:00,
2013-01-23 11:17:00,49.8,43.5,29.97,North,355,0.0,0.0,79,0.00,,,0.00,,Wunderground v.1.13,2013-01-23 19:17:00,
2013-01-23 11:22:00,49.9,44.0,29.97,North,355,0.0,0.0,80,0.00,,,0.00,,Wunderground v.1.13,2013-01-23 19:22:00,
2013-01-23 11:27:00,50.1,44.2,29.97,North,355,0.0,0.0,80,0.00,,,0.00,,Wunderground v.1.13,2013-01-23 19:27:00,
2013-01-23 11:30:00,50.5,45.5,29.94,North,0,0.0,1.0,83,0.00,,,-99.99,65,WeatherLink 5.7,2013-01-23 19:30:00,
2013-01-23 11:32:00,50.2,44.6,29.96,North,355,0.0,0.0,81,0.00,,,0.00,,Wunderground v.1.13,2013-01-23 19:32:00,
2013-01-23 11:42:00,50.4,44.5,29.96,North,355,0.0,0.0,80,0.00,,,0.00,,Wunderground v.1.13,2013-01-23 19:42:00,
2013-01-23 11:45:00,50.5,46.2,29.94,North,0,0.0,1.0,85,0.00,,,-99.99,60,WeatherLink 5.7,2013-01-23 19:45:00,
2013-01-23 11:47:00,50.5,44.6,29.96,North,355,0.0,0.0,80,0.00,,,0.00,,Wunderground v.1.13,2013-01-23 19:47:00,
2013-01-23 11:57:00,50.7,45.4,29.96,North,355,0.0,0.0,82,0.00,,,0.00,,Wunderground v.1.13,2013-01-23 19:57:00,
2013-01-23 12:00:00,50.4,46.7,29.95,North,-999,0.0,0.0,87,0.01,,,-99.99,46,WeatherLink 5.7,2013-01-23 20:00:00,
2013-01-23 12:07:00,50.7,45.1,29.96,North,355,0.0,0.0,81,0.00,,,0.00,,Wunderground v.1.13,2013-01-23 20:07:00,
2013-01-23 12:12:00,50.7,45.4,29.96,North,355,0.0,0.0,82,0.00,,,0.00,,Wunderground v.1.13,2013-01-23 20:12:00,
2013-01-23 12:15:00,50.1,46.7,29.95,North,0,0.0,1.0,88,0.04,,,-99.99,24,WeatherLink 5.7,2013-01-23 20:15:00,
2013-01-23 12:22:00,50.5,45.2,29.95,North,355,0.0,0.0,82,0.00,,,0.00,,Wunderground v.1.13,2013-01-23 20:22:00,
2013-01-23 12:30:00,49.6,46.8,29.95,North,-999,0.0,0.0,90,0.06,,,-99.99,20,WeatherLink 5.7,2013-01-23 20:30:00,
2013-01-23 12:32:00,50.5,45.5,29.94,North,355,0.0,0.0,83,0.00,,,0.00,,Wunderground v.1.13,2013-01-23 20:32:00,
2013-01-23 12:42:00,50.5,45.8,29.94,North,355,0.0,0.0,84,0.00,,,0.00,,Wunderground v.1.13,2013-01-23 20:42:00,
2013-01-23 12:45:00,49.5,47.0,29.95,North,-999,0.0,0.0,91,0.08,,,-99.99,44,WeatherLink 5.7,2013-01-23 20:45:00,
2013-01-23 12:47:00,50.5,46.2,29.95,North,355,0.0,0.0,85,0.00,,,0.00,,Wunderground v.1.13,2013-01-23 20:47:00,
2013-01-23 12:52:00,50.5,46.5,29.95,North,355,0.0,0.0,86,0.00,,,0.01,,Wunderground v.1.13,2013-01-23 20:52:00,
2013-01-23 13:00:00,49.5,47.3,29.94,North,-999,0.0,0.0,92,0.08,,,-99.99,45,WeatherLink 5.7,2013-01-23 21:00:00,
2013-01-23 13:02:00,50.4,46.7,29.95,North,355,0.0,0.0,87,0.00,,,0.01,,Wunderground v.1.13,2013-01-23 21:02:00,
2013-01-23 13:12:00,50.2,46.8,29.95,North,355,0.0,0.0,88,0.12,,,0.02,,Wunderground v.1.13,2013-01-23 21:12:00,
2013-01-23 13:15:00,49.5,47.6,29.94,North,-999,0.0,0.0,93,0.05,,,-99.99,44,WeatherLink 5.7,2013-01-23 21:15:00,
2013-01-23 13:17:00,50.1,46.7,29.95,North,355,0.0,0.0,88,0.21,,,0.04,,Wunderground v.1.13,2013-01-23 21:17:00,
2013-01-23 13:22:00,49.9,46.8,29.95,North,355,0.0,0.0,89,0.19,,,0.06,,Wunderground v.1.13,2013-01-23 21:22:00,
2013-01-23 13:27:00,49.6,46.8,29.95,North,355,0.0,0.0,90,0.11,,,0.06,,Wunderground v.1.13,2013-01-23 21:27:00,
2013-01-23 13:30:00,49.4,47.5,29.93,North,-999,0.0,0.0,93,0.03,,,-99.99,47,WeatherLink 5.7,2013-01-23 21:30:00,
2013-01-23 13:37:00,49.5,47.0,29.95,North,355,0.0,0.0,91,0.12,,,0.08,,Wunderground v.1.13,2013-01-23 21:37:00,
2013-01-23 13:42:00,49.5,47.0,29.95,North,355,0.0,0.0,91,0.10,,,0.08,,Wunderground v.1.13,2013-01-23 21:42:00,
2013-01-23 13:45:00,49.5,47.8,29.92,North,-999,0.0,0.0,94,0.01,,,-99.99,53,WeatherLink 5.7,2013-01-23 21:45:00,
2013-01-23 13:52:00,49.5,47.3,29.95,North,355,0.0,0.0,92,0.04,,,0.08,,Wunderground v.1.13,2013-01-23 21:52:00,
2013-01-23 14:00:00,49.6,47.9,29.92,North,-999,0.0,0.0,94,0.00,,,-99.99,51,WeatherLink 5.7,2013-01-23 22:00:00,
2013-01-23 14:02:00,49.5,47.3,29.94,North,355,0.0,0.0,92,0.00,,,0.09,,Wunderground v.1.13,2013-01-23 22:02:00,
2013-01-23 14:07:00,49.5,47.3,29.94,North,355,0.0,0.0,92,0.00,,,0.09,,Wunderground v.1.13,2013-01-23 22:07:00,
2013-01-23 14:15:00,49.8,48.1,29.95,North,0,0.0,2.0,94,0.00,,,-99.99,43,WeatherLink 5.7,2013-01-23 22:15:00,
2013-01-23 14:17:00,49.5,47.6,29.94,North,355,0.0,0.0,93,0.00,,,0.09,,Wunderground v.1.13,2013-01-23 22:17:00,
2013-01-23 14:27:00,49.4,47.5,29.94,North,355,0.0,0.0,93,0.00,,,0.09,,Wunderground v.1.13,2013-01-23 22:27:00,
2013-01-23 14:30:00,49.9,48.2,29.95,North,0,0.0,4.0,94,0.00,,,-99.99,46,WeatherLink 5.7,2013-01-23 22:30:00,
2013-01-23 14:37:00,49.4,47.7,29.93,North,355,0.0,0.0,94,0.00,,,0.09,,Wunderground v.1.13,2013-01-23 22:37:00,
2013-01-23 14:42:00,49.5,47.8,29.93,North,355,0.0,0.0,94,0.00,,,0.09,,Wunderground v.1.13,2013-01-23 22:42:00,
2013-01-23 14:45:00,50.1,48.4,29.96,North,-999,0.0,0.0,94,0.00,,,-99.99,27,WeatherLink 5.7,2013-01-23 22:45:00,
2013-01-23 14:52:00,49.5,47.8,29.92,North,355,0.0,0.0,94,0.00,,,0.09,,Wunderground v.1.13,2013-01-23 22:52:00,
2013-01-23 15:00:00,50.4,49.0,29.97,North,-999,0.0,0.0,95,0.00,,,-99.99,22,WeatherLink 5.7,2013-01-23 23:00:00,
2013-01-23 15:02:00,49.6,47.9,29.92,North,355,0.0,0.0,94,0.00,,,0.09,,Wunderground v.1.13,2013-01-23 23:02:00,
2013-01-23 15:07:00,49.6,47.9,29.92,North,355,0.0,0.0,94,0.00,,,0.09,,Wunderground v.1.13,2013-01-23 23:07:00,
2013-01-23 15:15:00,50.1,48.4,29.95,North,-999,0.0,0.0,94,0.01,,,-99.99,26,WeatherLink 5.7,2013-01-23 23:15:00,
2013-01-23 15:17:00,49.8,48.1,29.95,North,355,0.0,0.0,94,0.00,,,0.09,,Wunderground v.1.13,2013-01-23 23:17:00,
2013-01-23 15:22:00,49.8,48.1,29.95,North,355,0.0,0.0,94,0.00,,,0.09,,Wunderground v.1.13,2013-01-23 23:22:00,
2013-01-23 15:30:00,49.8,48.1,29.97,North,-999,0.0,0.0,94,0.01,,,-99.99,21,WeatherLink 5.7,2013-01-23 23:30:00,
2013-01-23 15:32:00,49.9,48.2,29.95,NNW,331,0.0,0.0,94,0.00,,,0.09,,Wunderground v.1.13,2013-01-23 23:32:00,
2013-01-23 15:42:00,50.1,48.4,29.95,NNW,331,0.0,0.0,94,0.00,,,0.09,,Wunderground v.1.13,2013-01-23 23:42:00,
2013-01-23 15:45:00,49.2,47.5,29.97,North,-999,0.0,0.0,94,0.01,,,-99.99,11,WeatherLink 5.7,2013-01-23 23:45:00,
2013-01-23 15:47:00,50.1,48.4,29.96,NNW,331,0.0,0.0,94,0.00,,,0.09,,Wunderground v.1.13,2013-01-23 23:47:00,
2013-01-23 15:57:00,50.4,48.7,29.96,NNW,331,0.0,0.0,94,0.00,,,0.09,,Wunderground v.1.13,2013-01-23 23:57:00,
2013-01-23 16:00:00,48.9,47.2,29.97,North,-999,0.0,0.0,94,0.01,,,-99.99,4,WeatherLink 5.7,2013-01-24 00:00:00,
2013-01-23 16:07:00,50.4,49.0,29.97,NNW,331,0.0,0.0,95,0.00,,,0.10,,Wunderground v.1.13,2013-01-24 00:07:00,
2013-01-23 16:15:00,48.6,47.0,29.98,North,-999,0.0,0.0,94,0.00,,,-99.99,0,WeatherLink 5.7,2013-01-24 00:15:00,
2013-01-23 16:17:00,50.1,48.4,29.95,NNW,331,0.0,0.0,94,0.00,,,0.10,,Wunderground v.1.13,2013-01-24 00:17:00,
2013-01-23 16:22:00,50.1,48.7,29.95,NNW,331,0.0,0.0,95,0.00,,,0.10,,Wunderground v.1.13,2013-01-24 00:22:00,
2013-01-23 16:30:00,48.5,46.9,29.97,North,-999,0.0,0.0,94,0.00,,,-99.99,0,WeatherLink 5.7,2013-01-24 00:30:00,
2013-01-23 16:32:00,49.8,48.1,29.97,NW,315,0.0,0.0,94,0.00,,,0.10,,Wunderground v.1.13,2013-01-24 00:32:00,
2013-01-23 16:37:00,49.5,47.8,29.97,NW,315,0.0,0.0,94,0.00,,,0.10,,Wunderground v.1.13,2013-01-24 00:37:00,
2013-01-23 16:45:00,48.3,46.9,29.98,North,-999,0.0,0.0,95,0.00,,,-99.99,0,WeatherLink 5.7,2013-01-24 00:45:00,
2013-01-23 16:47:00,49.2,47.5,29.97,NW,315,0.0,0.0,94,0.00,,,0.10,,Wunderground v.1.13,2013-01-24 00:47:00,
2013-01-23 16:57:00,48.9,47.2,29.97,NW,315,0.0,0.0,94,0.00,,,0.10,,Wunderground v.1.13,2013-01-24 00:57:00,
2013-01-23 17:00:00,48.2,46.8,29.97,North,-999,0.0,0.0,95,0.00,,,-99.99,0,WeatherLink 5.7,2013-01-24 01:00:00,
2013-01-23 17:02:00,48.8,47.2,29.97,NW,315,0.0,0.0,94,0.00,,,0.10,,Wunderground v.1.13,2013-01-24 01:02:00,
2013-01-23 17:12:00,48.8,47.2,29.97,NW,315,0.0,0.0,94,0.00,,,0.10,,Wunderground v.1.13,2013-01-24 01:12:00,
2013-01-23 17:15:00,48.2,46.8,29.97,North,-999,0.0,0.0,95,0.00,,,-99.99,0,WeatherLink 5.7,2013-01-24 01:15:00,
2013-01-23 17:22:00,48.6,47.0,29.98,NW,315,0.0,0.0,94,0.00,,,0.10,,Wunderground v.1.13,2013-01-24 01:22:00,
2013-01-23 17:30:00,48.2,47.1,29.99,North,-999,0.0,0.0,96,0.00,,,-99.99,0,WeatherLink 5.7,2013-01-24 01:30:00,
2013-01-23 17:32:00,48.5,47.1,29.97,NW,315,0.0,0.0,95,0.00,,,0.10,,Wunderground v.1.13,2013-01-24 01:32:00,
2013-01-23 17:42:00,48.3,46.9,29.97,NW,315,0.0,0.0,95,0.00,,,0.10,,Wunderground v.1.13,2013-01-24 01:42:00,
2013-01-23 17:45:00,48.2,47.1,29.98,North,-999,0.0,0.0,96,0.00,,,-99.99,0,WeatherLink 5.7,2013-01-24 01:45:00,
2013-01-23 17:52:00,48.3,46.9,29.98,NW,315,0.0,0.0,95,0.00,,,0.10,,Wunderground v.1.13,2013-01-24 01:52:00,
2013-01-23 17:57:00,48.3,46.9,29.98,NW,315,0.0,0.0,95,0.00,,,0.10,,Wunderground v.1.13,2013-01-24 01:57:00,
2013-01-23 18:00:00,48.0,46.9,30.00,North,-999,0.0,0.0,96,0.00,,,-99.99,0,WeatherLink 5.7,2013-01-24 02:00:00,
2013-01-23 18:07:00,48.2,46.8,29.97,NW,315,0.0,0.0,95,0.00,,,0.10,,Wunderground v.1.13,2013-01-24 02:07:00,
2013-01-23 18:15:00,48.0,46.9,30.00,WNW,292,0.0,1.0,96,0.00,,,-99.99,0,WeatherLink 5.7,2013-01-24 02:15:00,
2013-01-23 18:17:00,48.3,46.9,29.97,NW,315,0.0,0.0,95,0.00,,,0.10,,Wunderground v.1.13,2013-01-24 02:17:00,
2013-01-23 18:27:00,48.2,46.8,29.97,NW,315,0.0,0.0,95,0.00,,,0.10,,Wunderground v.1.13,2013-01-24 02:27:00,
2013-01-23 18:30:00,48.0,46.9,29.99,North,-999,0.0,0.0,96,0.00,,,-99.99,0,WeatherLink 5.7,2013-01-24 02:30:00,
2013-01-23 18:32:00,48.2,47.1,29.98,NW,315,0.0,0.0,96,0.00,,,0.10,,Wunderground v.1.13,2013-01-24 02:32:00,
2013-01-23 18:42:00,48.2,47.1,29.98,WNW,294,0.0,0.0,96,0.00,,,0.10,,Wunderground v.1.13,2013-01-24 02:42:00,
2013-01-23 18:45:00,47.9,46.8,29.99,North,-999,0.0,0.0,96,0.00,,,-99.99,0,WeatherLink 5.7,2013-01-24 02:45:00,
2013-01-23 18:52:00,48.2,47.1,29.98,WNW,294,0.0,0.0,96,0.00,,,0.10,,Wunderground v.1.13,2013-01-24 02:52:00,
2013-01-23 18:57:00,48.0,46.9,29.98,WNW,294,0.0,0.0,96,0.00,,,0.10,,Wunderground v.1.13,2013-01-24 02:57:00,
2013-01-23 19:00:00,47.7,46.6,30.00,North,-999,0.0,0.0,96,0.00,,,-99.99,0,WeatherLink 5.7,2013-01-24 03:00:00,
2013-01-23 19:02:00,48.0,46.9,30.00,WNW,294,0.0,0.0,96,0.00,,,0.10,,Wunderground v.1.13,2013-01-24 03:02:00,
2013-01-23 19:12:00,48.0,46.9,30.00,WNW,294,0.0,0.0,96,0.00,,,0.10,,Wunderground v.1.13,2013-01-24 03:12:00,
2013-01-23 19:15:00,47.6,46.5,30.01,North,-999,0.0,0.0,96,0.00,,,-99.99,0,WeatherLink 5.7,2013-01-24 03:15:00,
2013-01-23 19:17:00,48.0,46.9,30.00,WNW,294,0.0,0.0,96,0.00,,,0.10,,Wunderground v.1.13,2013-01-24 03:17:00,
2013-01-23 19:22:00,48.0,46.9,30.00,WNW,294,0.0,0.0,96,0.00,,,0.10,,Wunderground v.1.13,2013-01-24 03:22:00,
2013-01-23 19:30:00,47.6,46.5,30.01,North,-999,0.0,0.0,96,0.00,,,-99.99,0,WeatherLink 5.7,2013-01-24 03:30:00,
2013-01-23 19:32:00,48.0,46.9,29.99,WNW,294,0.0,0.0,96,0.00,,,0.10,,Wunderground v.1.13,2013-01-24 03:32:00,
2013-01-23 19:37:00,48.0,46.9,29.99,WNW,294,0.0,0.0,96,0.00,,,0.10,,Wunderground v.1.13,2013-01-24 03:37:00,
2013-01-23 19:42:00,47.9,46.8,29.99,WNW,294,0.0,0.0,96,0.00,,,0.10,,Wunderground v.1.13,2013-01-24 03:42:00,
2013-01-23 19:45:00,47.6,46.5,30.01,North,-999,0.0,0.0,96,0.01,,,-99.99,0,WeatherLink 5.7,2013-01-24 03:45:00,
2013-01-23 19:47:00,47.9,46.8,29.99,WNW,294,0.0,0.0,96,0.00,,,0.10,,Wunderground v.1.13,2013-01-24 03:47:00,
2013-01-23 19:57:00,47.9,46.8,29.99,WNW,294,0.0,0.0,96,0.00,,,0.10,,Wunderground v.1.13,2013-01-24 03:57:00,
2013-01-23 20:00:00,47.6,46.5,30.01,WNW,292,0.0,1.0,96,0.02,,,-99.99,0,WeatherLink 5.7,2013-01-24 04:00:00,
2013-01-23 20:02:00,47.7,46.6,30.00,WNW,294,0.0,0.0,96,0.00,,,0.10,,Wunderground v.1.13,2013-01-24 04:02:00,
2013-01-23 20:07:00,47.7,46.6,30.00,WNW,294,0.0,0.0,96,0.00,,,0.10,,Wunderground v.1.13,2013-01-24 04:07:00,
2013-01-23 20:12:00,47.6,46.5,30.00,WNW,294,0.0,0.0,96,0.00,,,0.10,,Wunderground v.1.13,2013-01-24 04:12:00,
2013-01-23 20:15:00,47.6,46.5,30.00,North,-999,0.0,0.0,96,0.02,,,-99.99,0,WeatherLink 5.7,2013-01-24 04:15:00,
2013-01-23 20:22:00,47.6,46.5,30.01,WNW,294,0.0,0.0,96,0.00,,,0.10,,Wunderground v.1.13,2013-01-24 04:22:00,
2013-01-23 20:30:00,47.7,46.6,30.01,North,-999,0.0,0.0,96,0.02,,,-99.99,0,WeatherLink 5.7,2013-01-24 04:30:00,
2013-01-23 20:32:00,47.6,46.5,30.01,WNW,294,0.0,0.0,96,0.00,,,0.11,,Wunderground v.1.13,2013-01-24 04:32:00,
2013-01-23 20:37:00,47.6,46.5,30.01,WNW,294,0.0,0.0,96,0.00,,,0.11,,Wunderground v.1.13,2013-01-24 04:37:00,
2013-01-23 20:45:00,47.7,46.6,30.01,WNW,292,0.0,1.0,96,0.01,,,-99.99,0,WeatherLink 5.7,2013-01-24 04:45:00,
2013-01-23 20:47:00,47.6,46.5,30.01,WNW,294,0.0,0.0,96,0.00,,,0.11,,Wunderground v.1.13,2013-01-24 04:47:00,
2013-01-23 20:57:00,47.6,46.5,30.01,WNW,294,0.0,0.0,96,0.00,,,0.12,,Wunderground v.1.13,2013-01-24 04:57:00,
2013-01-23 21:00:00,48.0,47.2,30.01,WNW,292,0.0,2.0,97,0.00,,,-99.99,0,WeatherLink 5.7,2013-01-24 05:00:00,
2013-01-23 21:07:00,47.7,46.6,30.01,WNW,294,0.0,0.0,96,0.00,,,0.12,,Wunderground v.1.13,2013-01-24 05:07:00,
2013-01-23 21:12:00,47.7,46.6,30.01,WNW,294,0.0,0.0,96,0.00,,,0.12,,Wunderground v.1.13,2013-01-24 05:12:00,
2013-01-23 21:15:00,47.9,46.8,30.01,East,90,0.0,3.0,96,0.00,,,-99.99,0,WeatherLink 5.7,2013-01-24 05:15:00,
2013-01-23 21:17:00,47.6,46.5,30.00,WNW,294,0.0,0.0,96,0.00,,,0.12,,Wunderground v.1.13,2013-01-24 05:17:00,
2013-01-23 21:22:00,47.6,46.5,30.00,WNW,294,0.0,0.0,96,0.00,,,0.12,,Wunderground v.1.13,2013-01-24 05:22:00,
2013-01-23 21:30:00,47.9,46.8,30.01,WSW,247,0.0,2.0,96,0.01,,,-99.99,0,WeatherLink 5.7,2013-01-24 05:30:00,
2013-01-23 21:32:00,47.7,46.6,30.02,WNW,294,0.0,0.0,96,0.00,,,0.12,,Wunderground v.1.13,2013-01-24 05:32:00,
2013-01-23 21:37:00,47.7,46.6,30.02,WNW,294,0.0,0.0,96,0.00,,,0.12,,Wunderground v.1.13,2013-01-24 05:37:00,
2013-01-23 21:42:00,47.7,46.6,30.02,WNW,294,0.0,0.0,96,0.00,,,0.12,,Wunderground v.1.13,2013-01-24 05:42:00,
2013-01-23 21:45:00,47.7,46.6,30.02,ENE,67,0.0,3.0,96,0.01,,,-99.99,0,WeatherLink 5.7,2013-01-24 05:45:00,
2013-01-23 21:52:00,47.9,47.1,30.01,WNW,294,0.0,1.0,97,0.00,,,0.12,,Wunderground v.1.13,2013-01-24 05:52:00,
2013-01-23 21:57:00,48.0,47.2,30.01,East,83,0.0,0.0,97,0.00,,,0.12,,Wunderground v.1.13,2013-01-24 05:57:00,
2013-01-23 22:00:00,47.6,46.5,30.02,NW,315,0.0,3.0,96,0.01,,,-99.99,0,WeatherLink 5.7,2013-01-24 06:00:00,
2013-01-23 22:07:00,48.0,47.2,30.01,ENE,67,0.0,1.0,97,0.00,,,0.12,,Wunderground v.1.13,2013-01-24 06:07:00,
2013-01-23 22:15:00,47.3,46.2,30.02,NW,315,0.0,2.0,96,0.01,,,-99.99,0,WeatherLink 5.7,2013-01-24 06:15:00,
2013-01-23 22:17:00,47.9,46.8,30.01,NE,53,0.0,0.0,96,0.00,,,0.13,,Wunderground v.1.13,2013-01-24 06:17:00,
2013-01-23 22:22:00,47.9,46.8,30.01,WSW,246,0.0,0.0,96,0.00,,,0.13,,Wunderground v.1.13,2013-01-24 06:22:00,
2013-01-23 22:30:00,47.3,46.2,30.02,North,-999,0.0,0.0,96,0.00,,,-99.99,0,WeatherLink 5.7,2013-01-24 06:30:00,
2013-01-23 22:32:00,47.9,46.8,30.02,SE,138,0.0,0.0,96,0.00,,,0.13,,Wunderground v.1.13,2013-01-24 06:32:00,
2013-01-23 22:37:00,47.9,46.8,30.02,ENE,59,0.0,0.0,96,0.00,,,0.13,,Wunderground v.1.13,2013-01-24 06:37:00,
2013-01-23 22:45:00,47.1,46.0,30.02,NW,315,0.0,1.0,96,0.00,,,-99.99,0,WeatherLink 5.7,2013-01-24 06:45:00,
2013-01-23 22:47:00,47.7,46.6,30.02,ENE,71,0.0,0.0,96,0.00,,,0.13,,Wunderground v.1.13,2013-01-24 06:47:00,
2013-01-23 22:52:00,47.7,46.6,30.02,NW,311,0.0,0.0,96,0.00,,,0.13,,Wunderground v.1.13,2013-01-24 06:52:00,
2013-01-23 23:00:00,47.1,46.0,30.01,North,-999,0.0,0.0,96,0.00,,,-99.99,0,WeatherLink 5.7,2013-01-24 07:00:00,
2013-01-23 23:02:00,47.6,46.5,30.02,NW,311,0.0,0.0,96,0.00,,,0.13,,Wunderground v.1.13,2013-01-24 07:02:00,
2013-01-23 23:07:00,47.4,46.3,30.02,NW,311,0.0,0.0,96,0.00,,,0.13,,Wunderground v.1.13,2013-01-24 07:07:00,
2013-01-23 23:15:00,47.1,46.0,30.01,North,-999,0.0,0.0,96,0.00,,,-99.99,0,WeatherLink 5.7,2013-01-24 07:15:00,
2013-01-23 23:17:00,47.3,46.2,30.02,NW,310,0.0,0.0,96,0.00,,,0.13,,Wunderground v.1.13,2013-01-24 07:17:00,
2013-01-23 23:27:00,47.3,46.2,30.02,NW,310,0.0,0.0,96,0.00,,,0.13,,Wunderground v.1.13,2013-01-24 07:27:00,
2013-01-23 23:30:00,47.1,46.0,30.01,North,-999,0.0,0.0,96,0.00,,,-99.99,0,WeatherLink 5.7,2013-01-24 07:30:00,
2013-01-23 23:37:00,47.3,46.2,30.02,NW,310,0.0,0.0,96,0.00,,,0.13,,Wunderground v.1.13,2013-01-24 07:37:00,
2013-01-23 23:42:00,47.1,46.0,30.02,NW,310,0.0,0.0,96,0.00,,,0.13,,Wunderground v.1.13,2013-01-24 07:42:00,
2013-01-23 23:45:00,47.0,45.9,30.00,North,-999,0.0,0.0,96,0.00,,,-99.99,0,WeatherLink 5.7,2013-01-24 07:45:00,
2013-01-23 23:47:00,47.1,46.0,30.02,NW,310,0.0,0.0,96,0.00,,,0.13,,Wunderground v.1.13,2013-01-24 07:47:00,
2013-01-23 23:57:00,47.1,46.0,30.02,NW,310,0.0,0.0,96,0.00,,,0.13,,Wunderground v.1.13,2013-01-24 07:57:00,